Time,TemperatureF,DewpointF,PressureIn,WindDirection,WindDirectionDegrees,WindSpeedMPH,WindSpeedGustMPH,Humidity,HourlyPrecipIn,Conditions,Clouds,dailyrainin,SoftwareType,DateUTC
2013-03-18 00:00:00,28.7,6.3,30.29,NW,306,0.0,0.0,38,0.00,,,0.00,Wunderground v.1.15,2013-03-18 04:00:00,
2013-03-18 00:01:00,28.7,6.3,30.29,NW,306,0.0,0.0,38,0.00,,,0.00,Wunderground v.1.15,2013-03-18 04:01:00,
2013-03-18 00:02:00,28.7,6.3,30.29,NW,306,0.0,0.0,38,0.00,,,0.00,Wunderground v.1.15,2013-03-18 04:02:00,
2013-03-18 00:08:00,28.4,6.6,30.29,NW,307,0.0,0.0,39,0.00,,,0.00,Wunderground v.1.15,2013-03-18 04:08:00,
2013-03-18 00:14:00,28.4,6.6,30.29,NW,307,0.0,0.0,39,0.00,,,0.00,Wunderground v.1.15,2013-03-18 04:14:00,
2013-03-18 00:19:00,28.4,6.0,30.29,NW,308,1.0,2.0,38,0.00,,,0.00,Wunderground v.1.15,2013-03-18 04:19:00,
2013-03-18 00:24:00,28.4,6.6,30.28,NW,308,1.0,1.0,39,0.00,,,0.00,Wunderground v.1.15,2013-03-18 04:24:00,
2013-03-18 00:29:00,28.2,6.4,30.28,NW,308,0.0,1.0,39,0.00,,,0.00,Wunderground v.1.15,2013-03-18 04:29:00,
2013-03-18 00:35:00,28.1,6.3,30.29,NW,308,0.0,0.0,39,0.00,,,0.00,Wunderground v.1.15,2013-03-18 04:35:00,
2013-03-18 00:40:00,27.9,6.7,30.29,NW,308,0.0,0.0,40,0.00,,,0.00,Wunderground v.1.15,2013-03-18 04:40:00,
2013-03-18 00:46:00,27.6,6.4,30.29,NW,308,1.0,1.0,40,0.00,,,0.00,Wunderground v.1.15,2013-03-18 04:46:00,
2013-03-18 00:51:00,27.6,6.4,30.30,NW,308,0.0,0.0,40,0.00,,,0.00,Wunderground v.1.15,2013-03-18 04:51:00,
2013-03-18 00:57:00,27.6,6.9,30.30,NW,308,0.0,0.0,41,0.00,,,0.00,Wunderground v.1.15,2013-03-18 04:57:00,
2013-03-18 01:03:00,27.6,6.4,30.30,North,5,0.0,3.0,40,0.00,,,0.00,Wunderground v.1.15,2013-03-18 05:03:00,
2013-03-18 01:09:00,27.8,6.6,30.30,NW,325,0.0,3.0,40,0.00,,,0.00,Wunderground v.1.15,2013-03-18 05:09:00,
2013-03-18 01:15:00,27.9,6.7,30.30,NE,44,1.0,2.0,40,0.00,,,0.00,Wunderground v.1.15,2013-03-18 05:15:00,
2013-03-18 01:22:00,27.9,6.1,30.30,North,351,0.0,1.0,39,0.00,,,0.00,Wunderground v.1.15,2013-03-18 05:22:00,
2013-03-18 01:28:00,27.9,6.1,30.30,NW,320,0.0,2.0,39,0.00,,,0.00,Wunderground v.1.15,2013-03-18 05:28:00,
2013-03-18 01:33:00,27.8,6.6,30.30,NW,321,1.0,1.0,40,0.00,,,0.00,Wunderground v.1.15,2013-03-18 05:33:00,
2013-03-18 01:39:00,27.6,6.4,30.31,North,355,0.0,1.0,40,0.00,,,0.00,Wunderground v.1.15,2013-03-18 05:39:00,
2013-03-18 01:44:00,27.5,6.3,30.31,NW,325,0.0,1.0,40,0.00,,,0.00,Wunderground v.1.15,2013-03-18 05:44:00,
2013-03-18 01:50:00,27.5,6.3,30.32,NW,325,0.0,0.0,40,0.00,,,0.00,Wunderground v.1.15,2013-03-18 05:50:00,
2013-03-18 01:55:00,27.3,6.1,30.32,NW,325,0.0,0.0,40,0.00,,,0.00,Wunderground v.1.15,2013-03-18 05:55:00,
2013-03-18 02:01:00,27.2,6.6,30.32,NW,326,0.0,0.0,41,0.00,,,0.00,Wunderground v.1.15,2013-03-18 06:01:00,
2013-03-18 02:06:00,27.0,6.4,30.32,NW,326,0.0,0.0,41,0.00,,,0.00,Wunderground v.1.15,2013-03-18 06:06:00,
2013-03-18 02:11:00,26.9,6.3,30.32,NW,326,0.0,0.0,41,0.00,,,0.00,Wunderground v.1.15,2013-03-18 06:11:00,
2013-03-18 02:16:00,26.7,6.1,30.32,NW,326,0.0,1.0,41,0.00,,,0.00,Wunderground v.1.15,2013-03-18 06:16:00,
2013-03-18 02:21:00,26.6,6.0,30.33,NW,326,0.0,0.0,41,0.00,,,0.00,Wunderground v.1.15,2013-03-18 06:21:00,
2013-03-18 02:27:00,26.4,6.4,30.33,NNW,331,1.0,1.0,42,0.00,,,0.00,Wunderground v.1.15,2013-03-18 06:27:00,
2013-03-18 02:32:00,26.4,6.4,30.33,NNW,339,0.0,2.0,42,0.00,,,0.00,Wunderground v.1.15,2013-03-18 06:32:00,
2013-03-18 02:37:00,26.3,6.3,30.33,NNW,341,0.0,2.0,42,0.00,,,0.00,Wunderground v.1.15,2013-03-18 06:37:00,
2013-03-18 02:42:00,26.3,6.8,30.33,NNW,342,0.0,2.0,43,0.00,,,0.00,Wunderground v.1.15,2013-03-18 06:42:00,
2013-03-18 02:47:00,26.3,6.8,30.33,North,11,0.0,3.0,43,0.00,,,0.00,Wunderground v.1.15,2013-03-18 06:47:00,
2013-03-18 02:52:00,26.3,6.8,30.33,NNE,12,0.0,0.0,43,0.00,,,0.00,Wunderground v.1.15,2013-03-18 06:52:00,
2013-03-18 02:57:00,26.1,7.1,30.33,NNE,15,3.0,3.0,44,0.00,,,0.00,Wunderground v.1.15,2013-03-18 06:57:00,
2013-03-18 03:02:00,26.1,7.1,30.33,NNE,28,0.0,7.0,44,0.00,,,0.00,Wunderground v.1.15,2013-03-18 07:02:00,
2013-03-18 03:07:00,26.0,7.0,30.33,NE,47,2.0,7.0,44,0.00,,,0.00,Wunderground v.1.15,2013-03-18 07:07:00,
2013-03-18 03:12:00,26.0,7.0,30.33,NE,49,0.0,4.0,44,0.00,,,0.00,Wunderground v.1.15,2013-03-18 07:12:00,
2013-03-18 03:17:00,25.8,6.9,30.33,NE,45,1.0,6.0,44,0.00,,,0.00,Wunderground v.1.15,2013-03-18 07:17:00,
2013-03-18 03:22:00,25.8,5.8,30.33,NE,53,1.0,4.0,42,0.00,,,0.00,Wunderground v.1.15,2013-03-18 07:22:00,
2013-03-18 03:27:00,25.8,5.3,30.33,NE,36,3.0,7.0,41,0.00,,,0.00,Wunderground v.1.15,2013-03-18 07:27:00,
2013-03-18 03:32:00,25.8,4.8,30.33,NNE,28,4.0,9.0,40,0.00,,,0.00,Wunderground v.1.15,2013-03-18 07:32:00,
2013-03-18 03:37:00,25.7,4.7,30.34,NE,55,3.0,9.0,40,0.00,,,0.00,Wunderground v.1.15,2013-03-18 07:37:00,
2013-03-18 03:42:00,25.6,4.0,30.34,NE,53,2.0,4.0,39,0.00,,,0.00,Wunderground v.1.15,2013-03-18 07:42:00,
2013-03-18 03:47:00,25.6,4.6,30.34,NNE,26,0.0,7.0,40,0.00,,,0.00,Wunderground v.1.15,2013-03-18 07:47:00,
2013-03-18 03:52:00,25.4,3.8,30.34,ENE,58,2.0,6.0,39,0.00,,,0.00,Wunderground v.1.15,2013-03-18 07:52:00,
2013-03-18 03:57:00,25.4,3.8,30.34,NNE,20,4.0,6.0,39,0.00,,,0.00,Wunderground v.1.15,2013-03-18 07:57:00,
2013-03-18 04:03:00,25.3,3.8,30.34,NNE,17,3.0,5.0,39,0.00,,,0.00,Wunderground v.1.15,2013-03-18 08:03:00,
2013-03-18 04:08:00,25.1,4.1,30.35,North,5,0.0,5.0,40,0.00,,,0.00,Wunderground v.1.15,2013-03-18 08:08:00,
2013-03-18 04:13:00,25.0,4.0,30.35,NNE,24,1.0,6.0,40,0.00,,,0.00,Wunderground v.1.15,2013-03-18 08:13:00,
2013-03-18 04:18:00,24.8,3.9,30.35,NNE,29,5.0,7.0,40,0.00,,,0.00,Wunderground v.1.15,2013-03-18 08:18:00,
2013-03-18 04:23:00,24.8,3.9,30.35,NE,43,6.0,8.0,40,0.00,,,0.00,Wunderground v.1.15,2013-03-18 08:23:00,
2013-03-18 04:28:00,24.7,3.8,30.35,NNE,26,1.0,8.0,40,0.00,,,0.00,Wunderground v.1.15,2013-03-18 08:28:00,
2013-03-18 04:33:00,24.5,3.6,30.35,NNE,15,1.0,6.0,40,0.00,,,0.00,Wunderground v.1.15,2013-03-18 08:33:00,
2013-03-18 04:38:00,24.5,3.6,30.36,NNE,15,1.0,6.0,40,0.00,,,0.00,Wunderground v.1.15,2013-03-18 08:38:00,
2013-03-18 04:43:00,24.5,3.6,30.36,NNE,20,1.0,6.0,40,0.00,,,0.00,Wunderground v.1.15,2013-03-18 08:43:00,
2013-03-18 04:48:00,24.4,4.0,30.36,North,5,4.0,6.0,41,0.00,,,0.00,Wunderground v.1.15,2013-03-18 08:48:00,
2013-03-18 04:53:00,24.4,3.5,30.36,NNE,32,1.0,5.0,40,0.00,,,0.00,Wunderground v.1.15,2013-03-18 08:53:00,
2013-03-18 04:58:00,24.2,3.3,30.36,NE,51,0.0,6.0,40,0.00,,,0.00,Wunderground v.1.15,2013-03-18 08:58:00,
2013-03-18 05:03:00,24.2,3.3,30.36,NNE,18,2.0,2.0,40,0.00,,,0.00,Wunderground v.1.15,2013-03-18 09:03:00,
2013-03-18 05:08:00,24.1,3.8,30.36,NE,40,0.0,3.0,41,0.00,,,0.00,Wunderground v.1.15,2013-03-18 09:08:00,
2013-03-18 05:13:00,23.9,4.1,30.36,NNE,22,0.0,0.0,42,0.00,,,0.00,Wunderground v.1.15,2013-03-18 09:13:00,
2013-03-18 05:18:00,23.8,3.5,30.36,NNE,22,0.0,1.0,41,0.00,,,0.00,Wunderground v.1.15,2013-03-18 09:18:00,
2013-03-18 05:23:00,23.6,3.3,30.38,NNE,22,0.0,0.0,41,0.00,,,0.00,Wunderground v.1.15,2013-03-18 09:23:00,
2013-03-18 05:28:00,23.5,4.2,30.38,NNE,22,0.0,0.0,43,0.00,,,0.00,Wunderground v.1.15,2013-03-18 09:28:00,
2013-03-18 05:33:00,23.3,3.6,30.38,NNE,22,0.0,0.0,42,0.00,,,0.00,Wunderground v.1.15,2013-03-18 09:33:00,
2013-03-18 05:38:00,23.2,3.5,30.38,NNE,22,0.0,0.0,42,0.00,,,0.00,Wunderground v.1.15,2013-03-18 09:38:00,
2013-03-18 05:43:00,23.0,3.8,30.38,NNE,22,0.0,0.0,43,0.00,,,0.00,Wunderground v.1.15,2013-03-18 09:43:00,
2013-03-18 05:48:00,22.9,3.2,30.38,NNE,22,0.0,0.0,42,0.00,,,0.00,Wunderground v.1.15,2013-03-18 09:48:00,
2013-03-18 05:53:00,22.9,3.2,30.39,NNE,22,0.0,0.0,42,0.00,,,0.00,Wunderground v.1.15,2013-03-18 09:53:00,
2013-03-18 05:58:00,22.5,3.3,30.39,NNE,22,0.0,0.0,43,0.00,,,0.00,Wunderground v.1.15,2013-03-18 09:58:00,
2013-03-18 06:04:00,22.5,3.3,30.39,NNE,22,0.0,0.0,43,0.00,,,0.00,Wunderground v.1.15,2013-03-18 10:04:00,
2013-03-18 06:09:00,22.7,3.0,30.40,NNE,22,0.0,1.0,42,0.00,,,0.00,Wunderground v.1.15,2013-03-18 10:09:00,
2013-03-18 06:14:00,22.5,3.8,30.40,NNE,22,0.0,1.0,44,0.00,,,0.00,Wunderground v.1.15,2013-03-18 10:14:00,
2013-03-18 06:19:00,22.2,4.1,30.40,NNE,22,0.0,1.0,45,0.00,,,0.00,Wunderground v.1.15,2013-03-18 10:19:00,
2013-03-18 06:24:00,22.2,3.6,30.41,NNE,22,0.0,1.0,44,0.00,,,0.00,Wunderground v.1.15,2013-03-18 10:24:00,
2013-03-18 06:29:00,22.1,3.5,30.41,NNE,22,0.0,1.0,44,0.00,,,0.00,Wunderground v.1.15,2013-03-18 10:29:00,
2013-03-18 06:34:00,21.9,3.8,30.41,NNE,22,0.0,0.0,45,0.00,,,0.00,Wunderground v.1.15,2013-03-18 10:34:00,
2013-03-18 06:39:00,21.9,3.3,30.41,NNE,22,2.0,3.0,44,0.00,,,0.00,Wunderground v.1.15,2013-03-18 10:39:00,
2013-03-18 06:44:00,21.8,3.7,30.41,NNE,22,0.0,2.0,45,0.00,,,0.00,Wunderground v.1.15,2013-03-18 10:44:00,
2013-03-18 06:49:00,21.8,3.7,30.41,NNE,22,0.0,2.0,45,0.00,,,0.00,Wunderground v.1.15,2013-03-18 10:49:00,
2013-03-18 06:54:00,21.6,3.5,30.41,NNE,22,0.0,2.0,45,0.00,,,0.00,Wunderground v.1.15,2013-03-18 10:54:00,
2013-03-18 06:59:00,21.6,3.5,30.41,NNE,22,0.0,2.0,45,0.00,,,0.00,Wunderground v.1.15,2013-03-18 10:59:00,
2013-03-18 07:04:00,21.4,3.3,30.41,NNE,23,0.0,0.0,45,0.00,,,0.00,Wunderground v.1.15,2013-03-18 11:04:00,
2013-03-18 07:09:00,21.4,4.3,30.41,NNE,23,0.0,0.0,47,0.00,,,0.00,Wunderground v.1.15,2013-03-18 11:09:00,
2013-03-18 07:14:00,21.4,4.3,30.41,NNE,23,0.0,0.0,47,0.00,,,0.00,Wunderground v.1.15,2013-03-18 11:14:00,
2013-03-18 07:19:00,21.3,4.2,30.41,NNE,23,0.0,2.0,47,0.00,,,0.00,Wunderground v.1.15,2013-03-18 11:19:00,
2013-03-18 07:24:00,21.1,4.9,30.42,NNE,23,0.0,1.0,49,0.00,,,0.00,Wunderground v.1.15,2013-03-18 11:24:00,
2013-03-18 07:29:00,21.3,4.6,30.42,NNE,23,0.0,2.0,48,0.00,,,0.00,Wunderground v.1.15,2013-03-18 11:29:00,
2013-03-18 07:34:00,21.4,5.6,30.42,NNE,23,0.0,0.0,50,0.00,,,0.00,Wunderground v.1.15,2013-03-18 11:34:00,
2013-03-18 07:39:00,21.8,5.1,30.42,NNE,23,0.0,0.0,48,0.00,,,0.00,Wunderground v.1.15,2013-03-18 11:39:00,
2013-03-18 07:44:00,22.1,4.9,30.42,NNE,22,0.0,3.0,47,0.00,,,0.00,Wunderground v.1.15,2013-03-18 11:44:00,
2013-03-18 07:49:00,22.4,5.2,30.42,NNE,23,1.0,3.0,47,0.00,,,0.00,Wunderground v.1.15,2013-03-18 11:49:00,
2013-03-18 07:54:00,22.5,4.8,30.42,NE,40,1.0,4.0,46,0.00,,,0.00,Wunderground v.1.15,2013-03-18 11:54:00,
2013-03-18 07:59:00,22.7,4.0,30.42,NE,34,1.0,4.0,44,0.00,,,0.00,Wunderground v.1.15,2013-03-18 11:59:00,
2013-03-18 08:04:00,22.9,4.7,30.42,NE,34,0.0,2.0,45,0.00,,,0.00,Wunderground v.1.15,2013-03-18 12:04:00,
2013-03-18 08:09:00,23.0,4.3,30.41,ENE,68,0.0,3.0,44,0.00,,,0.00,Wunderground v.1.15,2013-03-18 12:09:00,
2013-03-18 08:14:00,23.3,4.6,30.41,NE,47,0.0,1.0,44,0.00,,,0.00,Wunderground v.1.15,2013-03-18 12:14:00,
2013-03-18 08:19:00,23.5,3.7,30.41,NE,42,0.0,7.0,42,0.00,,,0.00,Wunderground v.1.15,2013-03-18 12:19:00,
2013-03-18 08:24:00,23.6,2.2,30.41,NNE,22,1.0,7.0,39,0.00,,,0.00,Wunderground v.1.15,2013-03-18 12:24:00,
2013-03-18 08:29:00,23.9,2.5,30.41,ENE,74,0.0,7.0,39,0.00,,,0.00,Wunderground v.1.15,2013-03-18 12:29:00,
2013-03-18 08:34:00,24.1,1.5,30.42,NE,49,2.0,6.0,37,0.00,,,0.00,Wunderground v.1.15,2013-03-18 12:34:00,
2013-03-18 08:39:00,24.4,1.8,30.42,NNE,23,0.0,6.0,37,0.00,,,0.00,Wunderground v.1.15,2013-03-18 12:39:00,
2013-03-18 08:44:00,25.0,-0.1,30.42,NE,53,6.0,7.0,33,0.00,,,0.00,Wunderground v.1.15,2013-03-18 12:44:00,
2013-03-18 08:49:00,24.7,-1.0,30.42,NE,44,1.0,7.0,32,0.00,,,0.00,Wunderground v.1.15,2013-03-18 12:49:00,
2013-03-18 08:54:00,24.5,-1.2,30.42,NE,49,0.0,5.0,32,0.00,,,0.00,Wunderground v.1.15,2013-03-18 12:54:00,
2013-03-18 08:59:00,25.1,1.8,30.42,NE,41,1.0,5.0,36,0.00,,,0.00,Wunderground v.1.15,2013-03-18 12:59:00,
2013-03-18 09:05:00,25.3,-0.5,30.41,NNE,31,2.0,5.0,32,0.00,,,0.00,Wunderground v.1.15,2013-03-18 13:05:00,
2013-03-18 09:10:00,25.3,-0.5,30.41,NE,54,0.0,5.0,32,0.00,,,0.00,Wunderground v.1.15,2013-03-18 13:10:00,
2013-03-18 09:15:00,25.7,0.5,30.41,NNE,13,3.0,6.0,33,0.00,,,0.00,Wunderground v.1.15,2013-03-18 13:15:00,
2013-03-18 09:20:00,25.7,-0.8,30.41,ENE,69,7.0,12.0,31,0.00,,,0.00,Wunderground v.1.15,2013-03-18 13:20:00,
2013-03-18 09:25:00,25.6,-2.3,30.41,NE,37,4.0,8.0,29,0.00,,,0.00,Wunderground v.1.15,2013-03-18 13:25:00,
2013-03-18 09:30:00,25.4,-1.8,30.41,NE,41,0.0,8.0,30,0.00,,,0.00,Wunderground v.1.15,2013-03-18 13:30:00,
2013-03-18 09:35:00,25.6,-2.3,30.41,NE,35,1.0,4.0,29,0.00,,,0.00,Wunderground v.1.15,2013-03-18 13:35:00,
2013-03-18 09:40:00,25.6,-2.3,30.41,NE,36,0.0,2.0,29,0.00,,,0.00,Wunderground v.1.15,2013-03-18 13:40:00,
2013-03-18 09:45:00,25.8,-2.1,30.41,North,10,0.0,4.0,29,0.00,,,0.00,Wunderground v.1.15,2013-03-18 13:45:00,
2013-03-18 09:50:00,26.1,-1.9,30.41,NNE,33,0.0,2.0,29,0.00,,,0.00,Wunderground v.1.15,2013-03-18 13:50:00,
2013-03-18 09:55:00,26.3,-2.4,30.41,NE,44,5.0,5.0,28,0.00,,,0.00,Wunderground v.1.15,2013-03-18 13:55:00,
2013-03-18 10:00:00,26.1,-2.6,30.41,NE,42,1.0,2.0,28,0.00,,,0.00,Wunderground v.1.15,2013-03-18 14:00:00,
2013-03-18 10:05:00,26.4,-2.4,30.41,North,11,1.0,5.0,28,0.00,,,0.00,Wunderground v.1.15,2013-03-18 14:05:00,
2013-03-18 10:10:00,26.6,-2.2,30.41,NE,38,0.0,2.0,28,0.00,,,0.00,Wunderground v.1.15,2013-03-18 14:10:00,
2013-03-18 10:15:00,26.9,-1.9,30.41,ENE,70,1.0,7.0,28,0.00,,,0.00,Wunderground v.1.15,2013-03-18 14:15:00,
2013-03-18 10:20:00,27.0,-1.8,30.41,NNE,28,2.0,3.0,28,0.00,,,0.00,Wunderground v.1.15,2013-03-18 14:20:00,
2013-03-18 10:25:00,27.2,-1.7,30.41,NNE,17,0.0,6.0,28,0.00,,,0.00,Wunderground v.1.15,2013-03-18 14:25:00,
2013-03-18 10:30:00,27.2,-1.7,30.41,NE,37,3.0,4.0,28,0.00,,,0.00,Wunderground v.1.15,2013-03-18 14:30:00,
2013-03-18 10:35:00,27.8,-0.4,30.40,NE,40,0.0,4.0,29,0.00,,,0.00,Wunderground v.1.15,2013-03-18 14:35:00,
2013-03-18 10:40:00,28.8,-0.3,30.40,NE,39,0.0,1.0,28,0.00,,,0.00,Wunderground v.1.15,2013-03-18 14:40:00,
2013-03-18 10:45:00,28.7,-1.1,30.40,ENE,66,3.0,5.0,27,0.00,,,0.00,Wunderground v.1.15,2013-03-18 14:45:00,
2013-03-18 10:50:00,28.8,-0.3,30.40,NNE,19,2.0,4.0,28,0.00,,,0.00,Wunderground v.1.15,2013-03-18 14:50:00,
2013-03-18 10:55:00,29.0,-0.1,30.40,NNE,25,0.0,4.0,28,0.00,,,0.00,Wunderground v.1.15,2013-03-18 14:55:00,
2013-03-18 11:00:00,30.6,0.5,30.40,East,80,1.0,2.0,27,0.00,,,0.00,Wunderground v.1.15,2013-03-18 15:00:00,
2013-03-18 11:05:00,30.1,-0.7,30.39,NE,49,2.0,4.0,26,0.00,,,0.00,Wunderground v.1.15,2013-03-18 15:05:00,
2013-03-18 11:10:00,30.1,-0.7,30.39,ENE,74,3.0,3.0,26,0.00,,,0.00,Wunderground v.1.15,2013-03-18 15:10:00,
2013-03-18 11:15:00,30.6,-0.3,30.39,East,81,1.0,5.0,26,0.00,,,0.00,Wunderground v.1.15,2013-03-18 15:15:00,
2013-03-18 11:20:00,31.0,0.1,30.38,East,82,0.0,1.0,26,0.00,,,0.00,Wunderground v.1.15,2013-03-18 15:20:00,
2013-03-18 11:25:00,31.5,1.3,30.38,East,80,0.0,3.0,27,0.00,,,0.00,Wunderground v.1.15,2013-03-18 15:25:00,
2013-03-18 11:30:00,32.2,1.1,30.38,WSW,246,3.0,4.0,26,0.00,,,0.00,Wunderground v.1.15,2013-03-18 15:30:00,
2013-03-18 11:35:00,31.9,0.0,30.38,SSW,194,0.0,4.0,25,0.00,,,0.00,Wunderground v.1.15,2013-03-18 15:35:00,
2013-03-18 11:40:00,31.5,0.5,30.38,ENE,63,1.0,3.0,26,0.00,,,0.00,Wunderground v.1.15,2013-03-18 15:40:00,
2013-03-18 11:45:00,32.2,1.1,30.38,NE,55,0.0,3.0,26,0.00,,,0.00,Wunderground v.1.15,2013-03-18 15:45:00,
2013-03-18 11:50:00,32.8,1.6,30.38,North,351,2.0,4.0,26,0.00,,,0.00,Wunderground v.1.15,2013-03-18 15:50:00,
2013-03-18 11:55:00,32.8,1.6,30.38,NNE,29,2.0,4.0,26,0.00,,,0.00,Wunderground v.1.15,2013-03-18 15:55:00,
2013-03-18 12:00:00,33.2,2.0,30.38,North,5,0.0,1.0,26,0.00,,,0.00,Wunderground v.1.15,2013-03-18 16:00:00,
2013-03-18 12:05:00,32.9,0.0,30.38,SE,136,0.0,5.0,24,0.00,,,0.00,Wunderground v.1.15,2013-03-18 16:05:00,
2013-03-18 12:10:00,33.4,0.4,30.38,SSE,155,0.0,3.0,24,0.00,,,0.00,Wunderground v.1.15,2013-03-18 16:10:00,
2013-03-18 12:15:00,33.2,-0.7,30.38,SSE,163,0.0,3.0,23,0.00,,,0.00,Wunderground v.1.15,2013-03-18 16:15:00,
2013-03-18 12:20:00,33.7,1.5,30.38,South,181,0.0,0.0,25,0.00,,,0.00,Wunderground v.1.15,2013-03-18 16:20:00,
2013-03-18 12:25:00,33.1,0.2,30.38,SSE,168,4.0,7.0,24,0.00,,,0.00,Wunderground v.1.15,2013-03-18 16:25:00,
2013-03-18 12:30:00,32.9,0.9,30.38,SSW,198,4.0,6.0,25,0.00,,,0.00,Wunderground v.1.15,2013-03-18 16:30:00,
2013-03-18 12:35:00,32.8,1.6,30.38,SE,143,3.0,7.0,26,0.00,,,0.00,Wunderground v.1.15,2013-03-18 16:35:00,
2013-03-18 12:40:00,32.8,1.6,30.38,SW,221,1.0,4.0,26,0.00,,,0.00,Wunderground v.1.15,2013-03-18 16:40:00,
2013-03-18 12:45:00,32.8,3.2,30.38,SSE,167,1.0,8.0,28,0.00,,,0.00,Wunderground v.1.15,2013-03-18 16:45:00,
2013-03-18 12:50:00,32.8,3.2,30.38,WSW,253,8.0,11.0,28,0.00,,,0.00,Wunderground v.1.15,2013-03-18 16:50:00,
2013-03-18 12:55:00,32.2,4.2,30.38,WSW,240,9.0,12.0,30,0.00,,,0.00,Wunderground v.1.15,2013-03-18 16:55:00,
2013-03-18 13:00:00,31.9,3.9,30.38,SW,225,6.0,10.0,30,0.00,,,0.00,Wunderground v.1.15,2013-03-18 17:00:00,
2013-03-18 13:05:00,32.1,3.4,30.38,SW,219,2.0,10.0,29,0.00,,,0.00,Wunderground v.1.15,2013-03-18 17:05:00,
2013-03-18 13:10:00,32.1,6.2,30.38,WSW,251,3.0,8.0,33,0.00,,,0.00,Wunderground v.1.15,2013-03-18 17:10:00,
2013-03-18 13:15:00,31.8,6.6,30.38,SSW,194,0.0,8.0,34,0.00,,,0.00,Wunderground v.1.15,2013-03-18 17:15:00,
2013-03-18 13:20:00,31.8,7.2,30.38,WSW,248,4.0,8.0,35,0.00,,,0.00,Wunderground v.1.15,2013-03-18 17:20:00,
2013-03-18 13:25:00,31.9,7.3,30.38,SW,228,6.0,12.0,35,0.00,,,0.00,Wunderground v.1.15,2013-03-18 17:25:00,
2013-03-18 13:30:00,32.2,7.6,30.38,SW,235,7.0,9.0,35,0.00,,,0.00,Wunderground v.1.15,2013-03-18 17:30:00,
2013-03-18 13:35:00,32.4,7.1,30.37,SSE,157,2.0,9.0,34,0.00,,,0.00,Wunderground v.1.15,2013-03-18 17:35:00,
2013-03-18 13:41:00,32.7,6.7,30.37,WSW,242,5.0,5.0,33,0.00,,,0.00,Wunderground v.1.15,2013-03-18 17:41:00,
2013-03-18 13:46:00,32.8,6.1,30.37,ESE,110,1.0,6.0,32,0.00,,,0.00,Wunderground v.1.15,2013-03-18 17:46:00,
2013-03-18 13:51:00,33.4,6.0,30.36,ESE,111,0.0,2.0,31,0.00,,,0.00,Wunderground v.1.15,2013-03-18 17:51:00,
2013-03-18 13:56:00,33.4,4.5,30.36,SE,130,0.0,4.0,29,0.00,,,0.00,Wunderground v.1.15,2013-03-18 17:56:00,
2013-03-18 14:01:00,34.0,5.8,30.36,SSE,148,0.0,1.0,30,0.00,,,0.00,Wunderground v.1.15,2013-03-18 18:01:00,
2013-03-18 14:06:00,33.7,4.0,30.35,SSE,165,3.0,7.0,28,0.00,,,0.00,Wunderground v.1.15,2013-03-18 18:06:00,
2013-03-18 14:12:00,33.7,4.8,30.35,SSW,211,0.0,4.0,29,0.00,,,0.00,Wunderground v.1.15,2013-03-18 18:12:00,
2013-03-18 14:17:00,33.8,4.1,30.35,SE,128,0.0,4.0,28,0.00,,,0.00,Wunderground v.1.15,2013-03-18 18:17:00,
2013-03-18 14:22:00,33.5,3.8,30.33,SE,138,6.0,7.0,28,0.00,,,0.00,Wunderground v.1.15,2013-03-18 18:22:00,
2013-03-18 14:27:00,33.4,3.7,30.33,East,101,0.0,7.0,28,0.00,,,0.00,Wunderground v.1.15,2013-03-18 18:27:00,
2013-03-18 14:32:00,33.7,4.0,30.33,SE,128,3.0,5.0,28,0.00,,,0.00,Wunderground v.1.15,2013-03-18 18:32:00,
2013-03-18 14:37:00,34.0,3.5,30.32,ENE,58,2.0,7.0,27,0.00,,,0.00,Wunderground v.1.15,2013-03-18 18:37:00,
2013-03-18 14:42:00,33.8,4.1,30.32,ENE,64,0.0,3.0,28,0.00,,,0.00,Wunderground v.1.15,2013-03-18 18:42:00,
2013-03-18 14:47:00,34.0,4.3,30.32,East,88,0.0,7.0,28,0.00,,,0.00,Wunderground v.1.15,2013-03-18 18:47:00,
2013-03-18 14:52:00,34.1,4.3,30.31,ENE,65,2.0,3.0,28,0.00,,,0.00,Wunderground v.1.15,2013-03-18 18:52:00,
2013-03-18 14:57:00,33.8,4.1,30.31,ENE,75,3.0,7.0,28,0.00,,,0.00,Wunderground v.1.15,2013-03-18 18:57:00,
2013-03-18 15:02:00,33.7,4.0,30.31,East,80,0.0,3.0,28,0.00,,,0.00,Wunderground v.1.15,2013-03-18 19:02:00,
2013-03-18 15:07:00,34.1,5.9,30.30,East,92,5.0,5.0,30,0.00,,,0.00,Wunderground v.1.15,2013-03-18 19:07:00,
2013-03-18 15:12:00,34.0,6.5,30.30,ENE,72,2.0,5.0,31,0.00,,,0.00,Wunderground v.1.15,2013-03-18 19:12:00,
2013-03-18 15:17:00,33.7,6.9,30.30,ESE,117,3.0,5.0,32,0.00,,,0.00,Wunderground v.1.15,2013-03-18 19:17:00,
2013-03-18 15:22:00,33.8,7.7,30.32,ESE,123,0.0,2.0,33,0.00,,,0.00,Wunderground v.1.15,2013-03-18 19:22:00,
2013-03-18 15:27:00,34.0,7.2,30.32,ENE,61,1.0,3.0,32,0.00,,,0.00,Wunderground v.1.15,2013-03-18 19:27:00,
2013-03-18 15:32:00,34.1,7.3,30.32,ENE,60,1.0,1.0,32,0.00,,,0.00,Wunderground v.1.15,2013-03-18 19:32:00,
2013-03-18 15:37:00,34.4,8.2,30.31,ENE,59,0.0,3.0,33,0.00,,,0.00,Wunderground v.1.15,2013-03-18 19:37:00,
2013-03-18 15:42:00,34.4,8.2,30.31,East,89,3.0,5.0,33,0.00,,,0.00,Wunderground v.1.15,2013-03-18 19:42:00,
2013-03-18 15:47:00,34.1,8.6,30.31,NE,39,3.0,5.0,34,0.00,,,0.00,Wunderground v.1.15,2013-03-18 19:47:00,
2013-03-18 15:52:00,34.0,8.5,30.29,ESE,119,5.0,7.0,34,0.00,,,0.00,Wunderground v.1.15,2013-03-18 19:52:00,
2013-03-18 15:58:00,34.0,9.2,30.29,ESE,121,0.0,7.0,35,0.00,,,0.00,Wunderground v.1.15,2013-03-18 19:58:00,
2013-03-18 16:03:00,34.1,9.3,30.29,NE,42,5.0,7.0,35,0.00,,,0.00,Wunderground v.1.15,2013-03-18 20:03:00,
2013-03-18 16:08:00,34.1,9.3,30.28,ENE,71,0.0,7.0,35,0.00,,,0.00,Wunderground v.1.15,2013-03-18 20:08:00,
2013-03-18 16:13:00,34.1,9.9,30.28,East,95,2.0,5.0,36,0.00,,,0.00,Wunderground v.1.15,2013-03-18 20:13:00,
2013-03-18 16:18:00,34.1,10.5,30.28,SE,128,0.0,5.0,37,0.00,,,0.00,Wunderground v.1.15,2013-03-18 20:18:00,
2013-03-18 16:23:00,34.1,11.1,30.27,ENE,61,4.0,7.0,38,0.00,,,0.00,Wunderground v.1.15,2013-03-18 20:23:00,
2013-03-18 16:28:00,33.7,11.9,30.27,East,90,2.0,9.0,40,0.00,,,0.00,Wunderground v.1.15,2013-03-18 20:28:00,
2013-03-18 16:33:00,33.7,12.5,30.27,ENE,57,1.0,5.0,41,0.00,,,0.00,Wunderground v.1.15,2013-03-18 20:33:00,
2013-03-18 16:38:00,33.5,13.4,30.27,ENE,78,4.0,5.0,43,0.00,,,0.00,Wunderground v.1.15,2013-03-18 20:38:00,
2013-03-18 16:43:00,33.5,13.4,30.27,ENE,73,4.0,4.0,43,0.00,,,0.00,Wunderground v.1.15,2013-03-18 20:43:00,
2013-03-18 16:48:00,33.4,13.8,30.27,NE,49,2.0,7.0,44,0.00,,,0.00,Wunderground v.1.15,2013-03-18 20:48:00,
2013-03-18 16:53:00,33.2,14.1,30.27,ENE,66,2.0,7.0,45,0.00,,,0.00,Wunderground v.1.15,2013-03-18 20:53:00,
2013-03-18 16:58:00,33.2,14.6,30.27,East,90,2.0,7.0,46,0.00,,,0.00,Wunderground v.1.15,2013-03-18 20:58:00,
2013-03-18 17:03:00,33.2,14.1,30.27,East,81,1.0,5.0,45,0.00,,,0.00,Wunderground v.1.15,2013-03-18 21:03:00,
2013-03-18 17:08:00,33.1,14.0,30.26,East,92,5.0,7.0,45,0.00,,,0.00,Wunderground v.1.15,2013-03-18 21:08:00,
2013-03-18 17:13:00,33.1,14.0,30.26,NE,50,0.0,7.0,45,0.00,,,0.00,Wunderground v.1.15,2013-03-18 21:13:00,
2013-03-18 17:18:00,32.9,13.9,30.26,ENE,65,4.0,7.0,45,0.00,,,0.00,Wunderground v.1.15,2013-03-18 21:18:00,
2013-03-18 17:23:00,32.9,14.4,30.27,East,91,1.0,7.0,46,0.00,,,0.00,Wunderground v.1.15,2013-03-18 21:23:00,
2013-03-18 17:28:00,32.8,15.2,30.27,NE,53,0.0,7.0,48,0.00,,,0.00,Wunderground v.1.15,2013-03-18 21:28:00,
2013-03-18 17:33:00,32.9,15.8,30.27,South,181,0.0,2.0,49,0.00,,,0.00,Wunderground v.1.15,2013-03-18 21:33:00,
2013-03-18 17:38:00,32.9,16.3,30.27,East,98,0.0,2.0,50,0.00,,,0.00,Wunderground v.1.15,2013-03-18 21:38:00,
2013-03-18 17:43:00,32.7,17.0,30.27,ENE,68,3.0,6.0,52,0.00,,,0.00,Wunderground v.1.15,2013-03-18 21:43:00,
2013-03-18 17:48:00,32.5,17.2,30.27,ESE,123,4.0,6.0,53,0.00,,,0.00,Wunderground v.1.15,2013-03-18 21:48:00,
2013-03-18 17:53:00,32.4,17.2,30.26,East,82,0.0,2.0,53,0.00,,,0.00,Wunderground v.1.15,2013-03-18 21:53:00,
2013-03-18 17:58:00,32.4,16.7,30.26,East,79,0.0,5.0,52,0.00,,,0.00,Wunderground v.1.15,2013-03-18 21:58:00,
2013-03-18 18:03:00,32.4,16.3,30.26,East,84,5.0,8.0,51,0.00,,,0.00,Wunderground v.1.15,2013-03-18 22:03:00,
2013-03-18 18:08:00,32.4,16.3,30.26,NE,38,0.0,8.0,51,0.00,,,0.00,Wunderground v.1.15,2013-03-18 22:08:00,
2013-03-18 18:13:00,32.4,16.7,30.26,ENE,59,5.0,7.0,52,0.00,,,0.00,Wunderground v.1.15,2013-03-18 22:13:00,
2013-03-18 18:18:00,32.4,16.7,30.26,East,92,0.0,7.0,52,0.00,,,0.00,Wunderground v.1.15,2013-03-18 22:18:00,
2013-03-18 18:23:00,32.4,17.2,30.27,SE,124,1.0,5.0,53,0.00,,,0.00,Wunderground v.1.15,2013-03-18 22:23:00,
2013-03-18 18:28:00,32.4,17.6,30.27,ENE,65,1.0,5.0,54,0.00,,,0.00,Wunderground v.1.15,2013-03-18 22:28:00,
2013-03-18 18:33:00,32.4,17.6,30.27,ESE,113,3.0,5.0,54,0.00,,,0.00,Wunderground v.1.15,2013-03-18 22:33:00,
2013-03-18 18:38:00,32.4,18.0,30.25,ENE,68,1.0,5.0,55,0.00,,,0.00,Wunderground v.1.15,2013-03-18 22:38:00,
2013-03-18 18:43:00,32.4,18.0,30.25,ENE,68,0.0,1.0,55,0.00,,,0.00,Wunderground v.1.15,2013-03-18 22:43:00,
2013-03-18 18:49:00,32.4,18.4,30.25,ENE,70,1.0,3.0,56,0.00,,,0.00,Wunderground v.1.15,2013-03-18 22:49:00,
2013-03-18 18:54:00,32.4,18.8,30.27,ENE,71,0.0,3.0,57,0.00,,,0.00,Wunderground v.1.15,2013-03-18 22:54:00,
2013-03-18 18:59:00,32.5,19.3,30.27,East,93,1.0,4.0,58,0.00,,,0.00,Wunderground v.1.15,2013-03-18 22:59:00,
2013-03-18 19:04:00,32.5,19.3,30.27,ENE,74,2.0,5.0,58,0.00,,,0.00,Wunderground v.1.15,2013-03-18 23:04:00,
2013-03-18 19:09:00,32.5,19.3,30.26,East,101,2.0,9.0,58,0.00,,,0.00,Wunderground v.1.15,2013-03-18 23:09:00,
2013-03-18 19:14:00,32.5,19.7,30.26,ENE,72,0.0,5.0,59,0.00,,,0.00,Wunderground v.1.15,2013-03-18 23:14:00,
2013-03-18 19:19:00,32.5,19.7,30.26,ESE,103,0.0,5.0,59,0.00,,,0.00,Wunderground v.1.15,2013-03-18 23:19:00,
2013-03-18 19:24:00,32.7,19.9,30.25,ESE,103,0.0,2.0,59,0.00,,,0.00,Wunderground v.1.15,2013-03-18 23:24:00,
2013-03-18 19:29:00,32.7,19.9,30.25,East,89,1.0,2.0,59,0.00,,,0.00,Wunderground v.1.15,2013-03-18 23:29:00,
2013-03-18 19:34:00,32.7,19.9,30.25,East,83,1.0,3.0,59,0.00,,,0.00,Wunderground v.1.15,2013-03-18 23:34:00,
2013-03-18 19:39:00,32.8,20.0,30.24,ESE,119,3.0,9.0,59,0.00,,,0.00,Wunderground v.1.15,2013-03-18 23:39:00,
2013-03-18 19:44:00,32.2,21.7,30.24,East,82,9.0,13.0,65,0.00,,,0.00,Wunderground v.1.15,2013-03-18 23:44:00,
2013-03-18 19:49:00,32.1,22.0,30.24,SE,126,0.0,13.0,66,0.00,,,0.00,Wunderground v.1.15,2013-03-18 23:49:00,
2013-03-18 19:54:00,31.9,22.2,30.24,NE,51,0.0,10.0,67,0.00,,,0.00,Wunderground v.1.15,2013-03-18 23:54:00,
2013-03-18 19:59:00,31.9,22.5,30.24,ENE,74,1.0,10.0,68,0.00,,,0.00,Wunderground v.1.15,2013-03-18 23:59:00,
2013-03-18 20:04:00,32.4,22.7,30.24,ESE,117,1.0,14.0,67,0.00,,,0.00,Wunderground v.1.15,2013-03-19 00:04:00,
2013-03-18 20:09:00,32.5,22.4,30.23,NE,51,2.0,14.0,66,0.00,,,0.00,Wunderground v.1.15,2013-03-19 00:09:00,
2013-03-18 20:14:00,32.7,22.2,30.23,NE,55,4.0,7.0,65,0.00,,,0.00,Wunderground v.1.15,2013-03-19 00:14:00,
2013-03-18 20:19:00,32.5,22.8,30.23,ENE,66,1.0,7.0,67,0.00,,,0.00,Wunderground v.1.15,2013-03-19 00:19:00,
2013-03-18 20:24:00,31.8,24.1,30.23,East,94,0.0,10.0,73,0.00,,,0.00,Wunderground v.1.15,2013-03-19 00:24:00,
2013-03-18 20:29:00,30.9,24.5,30.23,ENE,69,1.0,10.0,77,0.00,,,0.00,Wunderground v.1.15,2013-03-19 00:29:00,
2013-03-18 20:34:00,30.3,25.2,30.23,ENE,76,2.0,9.0,81,0.00,,,0.00,Wunderground v.1.15,2013-03-19 00:34:00,
2013-03-18 20:39:00,30.0,25.5,30.23,ENE,73,1.0,9.0,83,0.00,,,0.00,Wunderground v.1.15,2013-03-19 00:39:00,
2013-03-18 20:44:00,29.7,25.7,30.23,ENE,72,0.0,4.0,85,0.00,,,0.00,Wunderground v.1.15,2013-03-19 00:44:00,
2013-03-18 20:49:00,29.5,25.8,30.23,ENE,58,0.0,8.0,86,0.00,,,0.00,Wunderground v.1.15,2013-03-19 00:49:00,
2013-03-18 20:54:00,29.5,26.1,30.22,East,79,1.0,4.0,87,0.00,,,0.00,Wunderground v.1.15,2013-03-19 00:54:00,
2013-03-18 20:59:00,29.5,26.4,30.22,NE,38,0.0,5.0,88,0.00,,,0.00,Wunderground v.1.15,2013-03-19 00:59:00,
2013-03-18 21:04:00,29.4,26.3,30.22,NE,40,2.0,5.0,88,0.00,,,0.00,Wunderground v.1.15,2013-03-19 01:04:00,
2013-03-18 21:09:00,29.4,26.6,30.21,NE,44,1.0,6.0,89,0.00,,,0.00,Wunderground v.1.15,2013-03-19 01:09:00,
2013-03-18 21:14:00,29.4,26.6,30.21,East,81,1.0,6.0,89,0.00,,,0.00,Wunderground v.1.15,2013-03-19 01:14:00,
2013-03-18 21:19:00,29.3,26.7,30.21,ENE,70,5.0,6.0,90,0.00,,,0.00,Wunderground v.1.15,2013-03-19 01:19:00,
2013-03-18 21:24:00,29.3,26.7,30.20,ENE,59,1.0,8.0,90,0.00,,,0.00,Wunderground v.1.15,2013-03-19 01:24:00,
2013-03-18 21:29:00,29.3,26.7,30.20,East,86,8.0,10.0,90,0.00,,,0.00,Wunderground v.1.15,2013-03-19 01:29:00,
2013-03-18 21:34:00,29.4,27.1,30.19,NE,38,3.0,11.0,91,0.00,,,0.00,Wunderground v.1.15,2013-03-19 01:34:00,
2013-03-18 21:39:00,29.4,27.1,30.19,ENE,61,3.0,11.0,91,0.00,,,0.00,Wunderground v.1.15,2013-03-19 01:39:00,
2013-03-18 21:44:00,29.4,27.1,30.19,NE,49,1.0,8.0,91,0.00,,,0.00,Wunderground v.1.15,2013-03-19 01:44:00,
2013-03-18 21:49:00,29.4,26.8,30.18,ENE,69,3.0,8.0,90,0.00,,,0.00,Wunderground v.1.15,2013-03-19 01:49:00,
2013-03-18 21:54:00,29.4,26.8,30.18,NE,46,8.0,10.0,90,0.00,,,0.00,Wunderground v.1.15,2013-03-19 01:54:00,
2013-03-18 21:59:00,29.5,26.9,30.18,East,81,3.0,10.0,90,0.00,,,0.00,Wunderground v.1.15,2013-03-19 01:59:00,
2013-03-18 22:04:00,29.5,26.9,30.18,East,94,5.0,11.0,90,0.00,,,0.00,Wunderground v.1.15,2013-03-19 02:04:00,
2013-03-18 22:09:00,29.5,26.9,30.18,East,86,1.0,11.0,90,0.00,,,0.00,Wunderground v.1.15,2013-03-19 02:09:00,
2013-03-18 22:14:00,29.5,26.7,30.18,ENE,74,3.0,10.0,89,0.00,,,0.00,Wunderground v.1.15,2013-03-19 02:14:00,
2013-03-18 22:20:00,29.5,26.7,30.17,NE,37,0.0,16.0,89,0.00,,,0.00,Wunderground v.1.15,2013-03-19 02:20:00,
2013-03-18 22:25:00,29.5,26.7,30.17,ENE,64,4.0,11.0,89,0.00,,,0.00,Wunderground v.1.15,2013-03-19 02:25:00,
2013-03-18 22:30:00,29.5,26.7,30.17,ENE,73,2.0,11.0,89,0.00,,,0.00,Wunderground v.1.15,2013-03-19 02:30:00,
2013-03-18 22:35:00,29.5,26.9,30.16,East,96,3.0,7.0,90,0.00,,,0.00,Wunderground v.1.15,2013-03-19 02:35:00,
2013-03-18 22:40:00,29.5,26.9,30.16,ENE,65,3.0,10.0,90,0.00,,,0.00,Wunderground v.1.15,2013-03-19 02:40:00,
2013-03-18 22:45:00,29.5,26.9,30.16,North,11,8.0,11.0,90,0.00,,,0.00,Wunderground v.1.15,2013-03-19 02:45:00,
2013-03-18 22:50:00,29.4,26.8,30.16,NNE,32,2.0,11.0,90,0.00,,,0.00,Wunderground v.1.15,2013-03-19 02:50:00,
2013-03-18 22:55:00,29.4,26.8,30.16,NE,49,5.0,8.0,90,0.00,,,0.00,Wunderground v.1.15,2013-03-19 02:55:00,
2013-03-18 23:00:00,29.4,26.8,30.16,ENE,74,1.0,8.0,90,0.00,,,0.00,Wunderground v.1.15,2013-03-19 03:00:00,
2013-03-18 23:05:00,29.3,26.7,30.15,NE,56,1.0,7.0,90,0.00,,,0.00,Wunderground v.1.15,2013-03-19 03:05:00,
2013-03-18 23:10:00,29.3,27.0,30.15,NE,51,0.0,3.0,91,0.00,,,0.00,Wunderground v.1.15,2013-03-19 03:10:00,
2013-03-18 23:15:00,29.3,27.0,30.15,NE,53,0.0,6.0,91,0.00,,,0.00,Wunderground v.1.15,2013-03-19 03:15:00,
2013-03-18 23:20:00,29.3,27.0,30.14,NNE,30,1.0,2.0,91,0.00,,,0.00,Wunderground v.1.15,2013-03-19 03:20:00,
2013-03-18 23:25:00,29.3,27.3,30.14,NNE,32,2.0,8.0,92,0.00,,,0.00,Wunderground v.1.15,2013-03-19 03:25:00,
2013-03-18 23:30:00,29.3,27.3,30.14,ENE,57,3.0,3.0,92,0.00,,,0.00,Wunderground v.1.15,2013-03-19 03:30:00,
2013-03-18 23:35:00,29.4,27.4,30.12,NE,49,3.0,13.0,92,0.00,,,0.00,Wunderground v.1.15,2013-03-19 03:35:00,
2013-03-18 23:40:00,29.4,27.4,30.12,NE,45,2.0,3.0,92,0.00,,,0.00,Wunderground v.1.15,2013-03-19 03:40:00,
2013-03-18 23:45:00,29.5,27.5,30.12,ENE,57,1.0,12.0,92,0.00,,,0.00,Wunderground v.1.15,2013-03-19 03:45:00,
2013-03-18 23:50:00,29.5,27.5,30.11,NE,55,3.0,3.0,92,0.00,,,0.00,Wunderground v.1.15,2013-03-19 03:50:00,
2013-03-18 23:55:00,29.7,27.7,30.11,NE,55,5.0,6.0,92,0.00,,,0.00,Wunderground v.1.15,2013-03-19 03:55:00,